When you browse on this site, cookies collect data to enhance your experience and personalize the content and advertising you see.
Visit our Privacy Policy to learn more. By continuing to use the site, you agree to this use of cookies and data.

Hourly Weather Shusha

Today, 24 September, Thursday

Time Temperature Precipitation Wind Pressure Humidity
00:00 +13°C° 0 mm 0 mps 660 mmHg 90%
01:00 +13°C° 0 mm 0 mps 660 mmHg 90%
02:00 +13°C° 0 mm 0 mps 660 mmHg 90%
03:00 +13°C° 0 mm 0 mps 661 mmHg 90%
04:00 +13°C° 0 mm 0 mps 661 mmHg 89%
05:00 +13°C° 0 mm 0 mps 661 mmHg 89%
06:00 +13°C° 0 mm 0 mps 660 mmHg 89%
07:00 +14°C° 0 mm 0 mps 661 mmHg 83%
08:00 +16°C° 0 mm 1 mps 661 mmHg 77%
09:00 +19°C° 0 mm 1 mps 662 mmHg 71%
10:00 +19°C° 0 mm 2 mps 662 mmHg 67%
11:00 +19°C° 0 mm 2 mps 661 mmHg 64%
12:00 +20°C° 0 mm 2 mps 661 mmHg 61%
13:00 +21°C° 0 mm 2 mps 661 mmHg 59%
14:00 +21°C° 0 mm 2 mps 661 mmHg 58%
15:00 +23°C° 0 mm 2 mps 661 mmHg 56%
16:00 +20°C° 0 mm 2 mps 660 mmHg 62%
17:00 +20°C° 0 mm 1 mps 660 mmHg 67%
18:00 +18°C° 0 mm 1 mps 659 mmHg 72%
19:00 +18°C° 0 mm 1 mps 660 mmHg 74%
20:00 +18°C° 0 mm 1 mps 660 mmHg 75%
21:00 +16°C° 0 mm 1 mps 660 mmHg 77%
22:00 +16°C° 0 mm 1 mps 660 mmHg 78%
23:00 +16°C° 0 mm 1 mps 660 mmHg 78%

Tomorrow, 25 September, Friday

Time Temperature Precipitation Wind Pressure Humidity
00:00 +14°C° 0 mm 0 mps 660 mmHg 79%
01:00 +14°C° 0 mm 0 mps 660 mmHg 80%
02:00 +14°C° 0 mm 0 mps 659 mmHg 80%
03:00 +14°C° 0 mm 0 mps 659 mmHg 81%
04:00 +13°C° 0 mm 0 mps 659 mmHg 81%
05:00 +13°C° 0 mm 0 mps 659 mmHg 81%
06:00 +13°C° 0 mm 0 mps 659 mmHg 82%
07:00 +16°C° 0 mm 1 mps 660 mmHg 75%
08:00 +19°C° 0 mm 1 mps 660 mmHg 68%
09:00 +20°C° 0 mm 1 mps 661 mmHg 60%
10:00 +20°C° 0 mm 2 mps 661 mmHg 57%
11:00 +21°C° 0 mm 2 mps 660 mmHg 53%
12:00 +22°C° 0 mm 3 mps 660 mmHg 50%
13:00 +22°C° 0 mm 3 mps 660 mmHg 49%
14:00 +23°C° 0 mm 2 mps 659 mmHg 49%
15:00 +23°C° 0 mm 2 mps 659 mmHg 48%
16:00 +21°C° 0 mm 2 mps 659 mmHg 52%
17:00 +21°C° 0 mm 1 mps 658 mmHg 57%
18:00 +19°C° 0 mm 1 mps 658 mmHg 61%
19:00 +18°C° 0 mm 1 mps 658 mmHg 63%
20:00 +18°C° 0 mm 1 mps 658 mmHg 64%
21:00 +16°C° 0 mm 1 mps 658 mmHg 66%
22:00 +16°C° 0.1 mm 1 mps 658 mmHg 67%
23:00 +16°C° 0.1 mm 1 mps 658 mmHg 68%

Day after tomorrow, 26 September, Saturday

Time Temperature Precipitation Wind Pressure Humidity
00:00 +16°C° 0.1 mm 1 mps 658 mmHg 68%
01:00 +16°C° 0.2 mm 1 mps 658 mmHg 71%
02:00 +15°C° 0.2 mm 1 mps 658 mmHg 73%
03:00 +15°C° 0.2 mm 1 mps 657 mmHg 76%
04:00 +14°C° 0 mm 1 mps 657 mmHg 76%
05:00 +14°C° 0 mm 1 mps 657 mmHg 76%
06:00 +14°C° 0 mm 1 mps 657 mmHg 76%
07:00 +16°C° 0 mm 1 mps 658 mmHg 69%
08:00 +18°C° 0 mm 1 mps 658 mmHg 61%
09:00 +20°C° 0 mm 1 mps 659 mmHg 54%
10:00 +20°C° 0 mm 2 mps 659 mmHg 50%
11:00 +21°C° 0 mm 2 mps 659 mmHg 47%
12:00 +22°C° 0 mm 3 mps 659 mmHg 44%
13:00 +22°C° 0 mm 3 mps 659 mmHg 43%
14:00 +22°C° 0 mm 3 mps 658 mmHg 43%
15:00 +22°C° 0 mm 3 mps 658 mmHg 42%
16:00 +21°C° 0 mm 2 mps 658 mmHg 46%
17:00 +20°C° 0 mm 1 mps 658 mmHg 50%
18:00 +19°C° 0 mm 1 mps 657 mmHg 54%
19:00 +18°C° 0 mm 1 mps 658 mmHg 56%
20:00 +16°C° 0 mm 1 mps 658 mmHg 58%
21:00 +16°C° 0 mm 1 mps 658 mmHg 59%
22:00 +15°C° 0 mm 1 mps 658 mmHg 61%
23:00 +15°C° 0 mm 1 mps 658 mmHg 62%

27 September, Sunday

Time Temperature Precipitation Wind Pressure Humidity
00:00 +14°C° 0 mm 0 mps 658 mmHg 63%
01:00 +14°C° 0 mm 0 mps 658 mmHg 64%
02:00 +13°C° 0 mm 0 mps 658 mmHg 65%
03:00 +14°C° 0 mm 1 mps 658 mmHg 67%
04:00 +14°C° 0 mm 1 mps 658 mmHg 67%
05:00 +14°C° 0 mm 1 mps 658 mmHg 67%
06:00 +13°C° 0 mm 1 mps 658 mmHg 68%
07:00 +15°C° 0 mm 1 mps 659 mmHg 62%
08:00 +18°C° 0 mm 1 mps 660 mmHg 56%
09:00 +19°C° 0 mm 2 mps 661 mmHg 50%
10:00 +20°C° 0 mm 2 mps 661 mmHg 47%
11:00 +21°C° 0 mm 2 mps 661 mmHg 45%
12:00 +22°C° 0 mm 3 mps 661 mmHg 42%
13:00 +22°C° 0 mm 3 mps 661 mmHg 42%
14:00 +23°C° 0 mm 2 mps 661 mmHg 41%
15:00 +23°C° 0 mm 2 mps 660 mmHg 40%
16:00 +21°C° 0 mm 2 mps 660 mmHg 44%
17:00 +20°C° 0 mm 1 mps 660 mmHg 48%
18:00 +17°C° 0 mm 0 mps 660 mmHg 52%
19:00 +18°C° 0 mm 1 mps 660 mmHg 55%
20:00 +18°C° 0 mm 1 mps 660 mmHg 57%
21:00 +16°C° 0 mm 1 mps 661 mmHg 60%
22:00 +16°C° 0 mm 1 mps 661 mmHg 61%
23:00 +15°C° 0 mm 1 mps 661 mmHg 61%

28 September, Monday

Time Temperature Precipitation Wind Pressure Humidity
00:00 +14°C° 0 mm 0 mps 661 mmHg 62%
01:00 +14°C° 0 mm 0 mps 661 mmHg 63%
02:00 +13°C° 0 mm 0 mps 661 mmHg 65%
03:00 +13°C° 0 mm 0 mps 661 mmHg 66%
04:00 +13°C° 0 mm 0 mps 661 mmHg 66%
05:00 +13°C° 0 mm 0 mps 661 mmHg 67%
06:00 +13°C° 0 mm 0 mps 661 mmHg 67%
07:00 +16°C° 0 mm 1 mps 662 mmHg 62%
08:00 +18°C° 0 mm 1 mps 662 mmHg 56%
09:00 +19°C° 0 mm 2 mps 663 mmHg 51%
10:00 +20°C° 0 mm 2 mps 663 mmHg 49%
11:00 +21°C° 0 mm 2 mps 663 mmHg 47%
12:00 +22°C° 0 mm 3 mps 663 mmHg 45%
13:00 +23°C° 0 mm 2 mps 663 mmHg 44%
14:00 +23°C° 0 mm 2 mps 662 mmHg 44%
15:00 +23°C° 0 mm 2 mps 662 mmHg 44%
16:00 +21°C° 0 mm 2 mps 662 mmHg 47%
17:00 +19°C° 0 mm 2 mps 662 mmHg 50%
18:00 +19°C° 0 mm 1 mps 662 mmHg 53%
19:00 +18°C° 0 mm 1 mps 662 mmHg 56%
20:00 +16°C° 0 mm 1 mps 662 mmHg 58%
21:00 +15°C° 0 mm 1 mps 662 mmHg 60%
22:00 +15°C° 0 mm 1 mps 662 mmHg 63%
23:00 +14°C° 0 mm 1 mps 662 mmHg 66%

29 September, Tuesday

Time Temperature Precipitation Wind Pressure Humidity
00:00 +14°C° 0 mm 1 mps 662 mmHg 68%
01:00 +13°C° 0 mm 0 mps 662 mmHg 70%
02:00 +12°C° 0 mm 0 mps 661 mmHg 72%
03:00 +12°C° 0 mm 0 mps 661 mmHg 73%
04:00 +12°C° 0 mm 0 mps 661 mmHg 75%
05:00 +11°C° 0 mm 0 mps 661 mmHg 76%
06:00 +11°C° 0 mm 0 mps 661 mmHg 77%
07:00 +14°C° 0 mm 1 mps 661 mmHg 70%
08:00 +16°C° 0 mm 1 mps 661 mmHg 64%
09:00 +17°C° 0 mm 2 mps 662 mmHg 57%
10:00 +18°C° 0 mm 2 mps 661 mmHg 54%
11:00 +19°C° 0 mm 2 mps 661 mmHg 51%
12:00 +20°C° 0 mm 3 mps 661 mmHg 49%
13:00 +20°C° 0 mm 3 mps 660 mmHg 49%
14:00 +20°C° 0 mm 2 mps 660 mmHg 49%
15:00 +20°C° 0 mm 2 mps 659 mmHg 49%
16:00 +19°C° 0 mm 2 mps 659 mmHg 54%
17:00 +19°C° 0 mm 1 mps 658 mmHg 59%
18:00 +16°C° 0 mm 1 mps 658 mmHg 64%
19:00 +15°C° 0 mm 0 mps 658 mmHg 66%
20:00 +14°C° 0 mm 0 mps 658 mmHg 69%
21:00 +13°C° 0 mm 0 mps 658 mmHg 72%
22:00 +13°C° 0 mm 0 mps 658 mmHg 74%
23:00 +13°C° 0 mm 0 mps 657 mmHg 75%
Show more